TimeCDT,TemperatureF,Dew PointF,Humidity,Sea Level PressureIn,VisibilityMPH,Wind Direction,Wind SpeedMPH,Gust SpeedMPH,PrecipitationIn,Events,Conditions,WindDirDegrees,DateUTC
12:15 AM,71.6,66.2,83,29.74,10.0,SSE,4.6,-,N/A,,Clear,150,2012-10-21 05:15:00
12:35 AM,71.6,66.2,83,29.75,10.0,SSE,8.1,-,N/A,,Clear,150,2012-10-21 05:35:00
12:55 AM,71.6,66.2,83,29.75,10.0,SSE,6.9,-,N/A,,Clear,150,2012-10-21 05:55:00
1:15 AM,71.6,66.2,83,29.75,10.0,SSE,8.1,-,N/A,,Clear,150,2012-10-21 06:15:00
1:35 AM,69.8,66.2,88,29.75,10.0,SSE,4.6,-,N/A,,Clear,150,2012-10-21 06:35:00
1:55 AM,69.8,66.2,88,29.75,10.0,SSE,3.5,-,N/A,,Clear,150,2012-10-21 06:55:00
2:15 AM,69.8,66.2,88,29.76,10.0,SE,3.5,-,N/A,,Clear,140,2012-10-21 07:15:00
2:35 AM,69.8,68.0,94,29.76,10.0,SSE,3.5,-,N/A,,Clear,160,2012-10-21 07:35:00
2:55 AM,69.8,68.0,94,29.76,10.0,South,4.6,-,N/A,,Clear,170,2012-10-21 07:55:00
3:15 AM,69.8,68.0,94,29.77,10.0,South,3.5,-,N/A,,Clear,170,2012-10-21 08:15:00
3:35 AM,69.8,68.0,94,29.76,10.0,SSE,5.8,-,N/A,,Clear,150,2012-10-21 08:35:00
4:15 AM,69.8,68.0,94,29.76,10.0,Calm,Calm,-,N/A,,Clear,0,2012-10-21 09:15:00
4:35 AM,69.8,68.0,94,29.77,10.0,Calm,Calm,-,N/A,,Mostly Cloudy,0,2012-10-21 09:35:00
4:55 AM,71.6,69.8,94,29.77,10.0,South,3.5,-,N/A,,Mostly Cloudy,170,2012-10-21 09:55:00
5:15 AM,71.6,69.8,94,29.77,10.0,South,9.2,-,N/A,,Overcast,190,2012-10-21 10:15:00
5:35 AM,73.4,69.8,88,29.77,10.0,South,8.1,-,N/A,,Overcast,180,2012-10-21 10:35:00
5:55 AM,73.4,69.8,88,29.78,10.0,South,8.1,-,N/A,,Overcast,180,2012-10-21 10:55:00
6:15 AM,73.4,69.8,88,29.78,10.0,South,8.1,-,N/A,,Overcast,170,2012-10-21 11:15:00
6:35 AM,73.4,69.8,88,29.79,10.0,South,6.9,-,N/A,,Overcast,170,2012-10-21 11:35:00
6:55 AM,73.4,69.8,88,29.79,10.0,South,8.1,-,N/A,,Mostly Cloudy,170,2012-10-21 11:55:00
11:35 PM,78.8,68.0,69,29.83,10.0,SSE,9.2,-,N/A,,Clear,150,2012-10-22 04:35:00
11:55 PM,78.8,68.0,69,29.83,10.0,SSE,11.5,16.1,N/A,,Clear,150,2012-10-22 04:55:00